Location: Teplice
(50.6330°N, 13.8330°E)
Time: 00:17:14
(UTC+01:00)

ISS - Visible Passes

Search period start: 21 January 2021 00:00
Search period end: 31 January 2021 00:00
Orbit: 418 x 419 km, 51.6° (Epoch: 21 January)

Date Brightness Start Highest point End Pass type
(mag) Time Alt. Az. Time Alt. Az. Time Alt. Az.
21 Jan -2.0 17:55:31 10° SSW 17:58:04 20° SE 17:59:24 16° ESE visible
21 Jan -1.3 19:31:07 10° WSW 19:32:21 21° WSW 19:32:21 21° WSW visible
22 Jan -3.5 18:43:28 10° SW 18:46:41 55° SSE 18:46:41 55° SSE visible
23 Jan -3.0 17:55:54 10° SW 17:59:05 40° SSE 18:00:58 20° E visible
23 Jan -1.4 19:32:23 10° W 19:33:55 25° W 19:33:55 25° W visible
24 Jan -3.9 18:44:37 10° WSW 18:47:59 88° SSE 18:48:08 81° E visible
25 Jan -3.7 17:56:51 10° WSW 18:00:13 72° SSE 18:02:20 21° E visible
25 Jan -1.5 19:33:41 10° W 19:35:17 25° W 19:35:17 25° W visible
26 Jan -3.9 18:45:52 10° W 18:49:15 73° N 18:49:27 70° NNE visible
27 Jan -3.8 17:58:02 10° W 18:01:25 80° N 18:03:37 20° ENE visible
27 Jan -1.6 19:34:56 10° WNW 19:36:33 26° WNW 19:36:33 26° WNW visible
28 Jan -3.9 18:47:06 10° W 18:50:29 75° N 18:50:43 70° NE visible
29 Jan -3.7 17:59:15 10° W 18:02:38 72° N 18:04:54 19° E visible
29 Jan -1.7 19:36:05 10° WNW 19:37:51 28° W 19:37:51 28° W visible
30 Jan -3.8 18:48:15 10° WNW 18:51:38 83° SSW 18:52:04 65° ESE visible
